Temperature
18 19 18 17 17 16 16 15 15 15 15 14 14 14 14 14 14 14 14 13 13 13 13 13 13 13 13 14 14 14 14 13 13 13 13 13 12 12 13 13 13 13 13
20 19 18 17 16 16 15 15 15 15 14 14 14 13 13 13 13 13 13 13 13 12 12 12 12 13 13 14 14 14 14 13 12 12 12 11 11 11 11 12 11 11 11
19 19 18 17 16 16 15 15 15 14 14 14 13 13 13 13 13 12 12 12 12 12 12 12 12 12 13 13 14 13 13 12 11 11 11 11 11 11 11 11 11 11 11
19 18 17 17 16 16 15 15 15 14 14 14 13 13 12 12 12 12 12 12 12 12 12 12 12 12 13 13 13 13 12 12 11 11 10 10 10 10 10 10 10 10 10
17 18 17 16 16 15 15 15 14 14 14 13 13 12 12 12 12 12 12 12 12 12 12 12 12 12 13 13 13 13 12 11 10 10 10 10 10 10 10 10 10 10 10
17 17 16 16 16 15 15 14 14 14 13 13 12 12 12 11 11 11 11 12 12 12 12 12 12 12 12 13 13 12 11 11 10 10 10 10 10 10 10 9 10 10 10
16 16 16 15 15 15 15 14 14 13 13 12 12 12 11 11 11 11 11 11 11 11 11 11 11 11 12 12 12 12 11 10 10 10 10 10 10 9 9 9 9 9 10
16 15 15 15 15 14 14 14 13 13 13 12 12 11 11 11 11 11 11 11 11 11 11 11 11 11 12 12 12 11 11 10 10 9 10 10 9 9 9 9 9 9 9
15 15 15 14 14 14 14 14 13 13 12 12 12 11 11 11 11 11 11 11 11 11 10 11 11 11 11 11 11 11 10 10 9 9 9 9 9 9 9 9 9 9 9
15 15 15 14 14 14 13 13 13 13 12 12 12 11 11 11 11 11 11 11 11 11 11 11 11 11 11 11 11 10 10 9 9 9 9 9 9 9 9 9 9 9 9
15 14 14 14 14 14 13 13 13 12 12 11 11 11 11 11 11 11 11 11 11 10 10 11 11 11 11 11 10 10 10 9 9 10 10 9 9 8 8 8 8 8 8
15 14 14 14 14 13 13 13 12 12 11 11 11 11 11 10 10 10 11 11 11 10 11 11 10 10 10 10 10 10 9 9 9 10 10 9 9 8 8 8 8 8 8
15 14 14 14 14 13 13 13 12 12 12 11 11 11 10 10 10 10 10 10 10 10 10 10 10 10 10 10 10 9 9 9 9 10 10 9 9 8 8 8 8 8 8
15 15 14 14 14 13 13 13 12 12 12 11 11 11 10 10 10 10 10 10 10 10 10 10 10 10 10 10 10 9 9 9 9 10 10 9 9 9 8 8 8 8 8
15 15 15 14 14 13 13 13 12 12 12 11 11 11 10 10 10 10 10 10 10 10 10 10 10 10 10 10 10 10 9 9 9 10 10 9 9 9 9 8 8 8 8
16 15 15 14 14 13 13 13 12 12 12 11 11 11 11 10 10 10 10 10 10 10 10 10 10 10 10 10 10 10 9 9 9 9 10 9 9 9 9 8 8 8 8
16 16 15 14 14 14 13 13 12 12 12 12 11 11 11 11 11 10 10 10 10 10 10 10 10 10 10 10 10 10 10 9 9 9 9 9 9 9 9 9 8 8 8
17 16 15 14 14 14 13 13 13 12 12 12 12 11 11 11 11 10 10 10 10 10 10 10 10 10 10 10 10 10 10 9 9 9 9 9 9 9 9 9 9 8 8
17 16 15 15 14 14 14 13 13 12 12 12 12 12 11 11 11 11 10 10 10 10 10 10 10 10 10 10 10 10 10 10 10 9 9 9 9 9 9 9 9 9 8
17 16 16 15 15 14 13 13 12 12 12 12 12 12 12 11 11 11 11 10 10 10 10 10 10 10 10 10 10 9 10 10 9 9 9 9 9 9 9 9 9 9 8
18 17 16 15 15 14 13 13 13 12 12 12 12 12 12 12 11 11 11 11 10 10 10 10 10 10 10 10 9 9 9 9 9 9 9 9 9 9 9 9 8 8 8
18 17 16 15 15 14 14 14 14 13 13 12 12 12 12 12 11 11 11 11 11 11 10 10 10 10 10 10 10 9 9 9 9 9 9 9 9 9 9 9 8 8 8
18 17 16 16 15 15 14 13 12 12 12 12 12 12 12 12 12 11 11 11 11 11 11 10 10 10 10 10 9 9 9 9 9 9 9 9 9 9 9 8 8 8 8
18 18 17 16 15 15 14 13 13 13 13 13 13 13 12 12 12 12 11 11 11 11 11 10 10 10 10 10 9 9 9 9 9 9 9 9 9 9 8 8 8 8 7
19 18 17 16 15 15 14 14 13 14 14 14 13 13 12 12 12 12 11 11 11 11 11 10 10 10 10 10 10 9 9 9 9 9 9 9 8 8 8 8 8 8 7
19 18 17 16 15 15 14 14 13 14 14 13 13 13 12 12 12 12 11 11 11 11 11 10 10 10 10 10 9 9 9 9 9 9 8 8 8 8 8 8 8 7 7
Wind_Speed
14 19 25 24 22 21 19 19 18 18 17 17 17 17 16 16 16 16 16 16 17 17 17 18 18 18 18 18 18 18 18 18 18 19 19 19 19 19 19 19 17 16 18
17 22 26 25 23 21 20 19 18 18 17 17 17 17 16 16 16 16 17 16 16 17 17 17 17 18 17 17 17 17 16 15 15 15 17 18 18 18 18 17 17 15 16
20 23 25 25 23 22 21 19 19 18 17 17 17 17 17 16 16 16 16 16 16 16 16 16 17 17 17 17 16 15 14 13 12 13 15 16 16 17 17 16 16 16 16
20 22 23 25 24 23 21 20 19 18 18 17 17 17 17 16 16 16 16 16 16 16 16 16 16 16 16 16 15 14 12 11 13 15 16 16 15 15 15 15 15 15 15
18 21 23 26 24 23 22 20 19 19 18 17 17 17 16 16 16 16 16 16 16 15 15 15 15 15 15 14 14 12 10 10 12 16 16 16 14 14 14 14 14 15 14
18 20 24 25 24 23 22 21 20 19 18 18 17 16 16 16 16 16 16 15 15 15 15 14 14 14 14 13 12 10 10 11 12 15 17 16 13 13 13 13 14 14 15
18 19 23 24 24 23 22 21 20 19 19 18 17 17 16 16 16 15 15 14 14 14 14 13 13 13 13 12 11 9 9 10 12 14 15 14 12 13 13 13 13 14 15
18 19 22 24 24 23 22 22 21 20 19 19 18 17 17 17 16 15 14 14 13 13 12 12 12 12 12 11 9 8 8 10 9 13 15 13 13 13 13 13 14 15 15
17 18 17 20 22 23 22 21 21 20 20 19 18 17 17 16 15 14 14 13 12 12 11 11 11 11 11 9 7 6 7 9 7 12 13 12 12 12 13 13 14 15 15
16 17 16 17 19 19 19 21 21 20 19 19 18 18 17 16 15 14 13 12 12 11 11 10 10 10 9 7 5 4 6 7 10 14 13 11 11 12 12 13 13 14 15
16 16 16 16 16 18 18 20 20 20 19 19 18 19 17 15 15 13 13 12 11 11 10 10 9 8 7 6 3 2 4 4 12 13 11 10 10 11 12 13 13 13 14
17 17 16 16 15 16 17 18 17 17 18 17 17 18 15 14 14 14 15 12 11 11 10 8 7 6 6 5 2 1 3 6 11 12 10 10 9 10 11 12 12 13 13
16 16 16 15 15 14 11 14 13 14 15 16 18 17 14 13 14 14 12 11 11 10 9 8 7 5 5 4 3 2 5 7 10 11 10 9 9 9 9 10 11 12 12
15 15 15 15 14 13 12 11 11 10 11 11 16 17 13 9 9 10 9 11 11 10 8 7 6 5 5 4 3 5 5 7 10 11 10 9 9 8 8 9 9 10 11
15 16 15 15 15 13 12 10 10 9 10 12 15 16 14 8 6 7 8 10 10 10 9 6 5 5 5 4 4 5 5 6 8 11 11 10 8 7 7 8 8 9 10
17 17 15 16 15 13 11 10 9 10 12 13 13 14 15 13 8 6 6 7 8 9 9 6 5 4 4 4 3 4 4 5 6 10 11 10 8 7 7 7 7 8 9
18 17 16 16 15 14 12 11 8 9 11 9 12 15 15 15 12 8 5 5 7 10 9 5 6 5 3 3 2 4 4 4 4 7 10 10 9 8 7 6 6 7 7
17 18 17 16 16 15 12 10 8 9 10 9 13 14 15 15 15 9 5 5 9 10 7 4 3 3 3 2 2 2 3 3 3 5 6 8 9 8 7 5 5 5 6
18 19 18 17 17 16 13 10 8 8 9 9 12 12 15 15 16 10 6 7 11 7 4 4 3 3 3 3 3 2 1 2 2 3 4 6 7 8 7 5 4 3 3
18 19 18 17 16 15 12 10 7 8 8 8 9 11 15 15 16 12 7 8 10 5 5 5 4 3 3 4 3 2 1 2 2 2 3 5 6 6 6 5 5 3 0
17 19 20 19 18 15 13 13 12 10 9 8 8 12 15 15 15 11 6 7 7 6 7 7 5 5 3 3 2 0 1 2 2 2 3 4 5 6 5 5 4 4 3
18 19 20 21 20 18 15 13 11 10 8 7 7 9 14 15 15 12 9 8 7 7 8 7 6 4 3 4 3 2 1 2 3 3 2 3 3 5 5 5 4 4 3
18 19 20 21 21 19 15 11 10 8 7 7 9 9 11 14 15 13 10 8 8 8 8 8 8 7 5 4 3 4 3 3 2 2 4 4 4 3 4 6 6 6 5
18 18 19 20 20 20 18 16 17 15 13 12 11 9 10 12 13 14 12 10 9 8 8 8 8 6 7 5 3 2 2 3 3 1 3 3 5 5 5 5 6 7 7
17 18 18 19 19 19 20 18 18 14 12 9 9 11 12 11 12 13 13 11 10 9 9 9 8 8 6 6 5 3 2 1 2 3 3 3 3 4 4 5 6 7 8
16 16 17 18 19 20 21 20 19 18 15 13 13 13 12 10 10 13 12 11 11 9 10 10 9 10 8 7 5 4 4 3 3 3 3 3 3 4 4 3 4 6 8
Wind_Direction
141 151 156 152 148 145 141 136 131 127 122 118 116 112 108 104 102 101 99 96 93 89 86 84 81 79 78 77 76 75 75 75 74 73 69 66 64 61 57 55 54 50 51
142 150 155 152 150 147 143 138 133 130 126 122 118 115 111 109 106 103 100 98 96 92 88 86 83 81 80 78 76 76 76 75 74 74 72 67 62 61 59 57 55 53 51
142 148 154 152 150 148 145 140 136 133 130 126 121 118 114 113 109 105 102 99 96 92 90 88 86 83 81 79 78 77 74 66 56 64 70 66 58 57 56 54 53 52 49
142 147 153 151 151 149 146 143 139 135 132 129 125 121 117 115 112 108 104 101 98 95 91 89 89 85 83 80 78 75 68 54 43 60 64 60 53 53 52 50 48 47 46
140 147 151 152 151 150 148 145 141 137 135 132 129 125 122 118 114 110 107 104 101 98 96 94 91 88 84 81 78 73 62 41 41 65 64 60 47 48 49 46 45 44 44
140 145 149 153 152 151 148 146 145 142 138 135 132 130 126 122 117 112 110 107 104 103 100 97 93 89 84 80 77 68 49 29 59 65 64 54 42 45 48 47 45 45 45
142 143 151 154 153 151 150 148 147 144 141 139 136 134 130 125 120 117 115 111 109 106 103 100 95 90 85 80 74 61 36 21 71 70 67 51 43 47 49 49 48 49 46
142 143 152 156 155 153 151 150 148 147 144 142 139 137 133 129 126 123 121 118 115 110 107 103 98 93 87 80 71 52 28 23 56 74 67 48 45 49 51 53 53 49 47
141 144 151 156 155 154 152 150 150 148 147 145 143 139 135 133 132 129 126 124 120 114 109 106 101 97 90 83 70 44 20 7 43 68 66 46 47 52 55 54 50 48 48
143 147 153 156 156 154 153 151 151 150 149 147 143 138 137 137 136 133 130 128 124 120 116 111 107 102 99 95 78 33 359 352 67 70 62 47 52 55 56 54 52 51 49
151 154 158 159 158 157 156 155 152 152 150 146 142 140 141 142 139 138 134 134 132 129 123 119 119 120 118 119 107 13 339 57 80 77 60 53 56 56 57 56 53 49 48
162 161 163 162 159 158 159 155 156 154 152 151 150 152 158 154 149 142 138 141 141 137 134 137 145 147 147 155 178 309 341 75 94 87 67 57 57 59 58 56 53 49 47
166 164 165 161 160 158 155 158 161 159 162 163 159 167 168 150 139 135 143 145 147 149 152 159 170 181 150 132 131 86 45 56 85 89 75 65 60 62 61 58 53 49 47
169 168 165 161 161 160 157 161 160 160 168 167 167 172 164 147 146 152 156 162 165 167 160 172 185 164 133 124 98 85 70 67 88 97 83 75 67 63 63 60 55 51 47
172 170 168 163 163 161 158 163 165 164 169 167 168 171 161 149 154 159 162 163 169 163 164 185 173 139 120 103 88 83 83 86 95 107 102 90 78 68 65 63 56 51 46
175 173 169 167 165 162 163 166 164 164 165 165 165 170 162 158 163 163 157 160 166 158 165 179 143 129 118 106 94 89 85 88 102 117 121 107 94 81 71 64 54 49 44
176 174 172 170 168 167 167 168 165 161 163 162 164 171 168 164 168 167 155 157 161 159 163 159 131 122 112 111 110 95 86 81 90 118 131 129 118 102 84 69 55 50 41
174 174 174 173 171 170 170 169 165 164 162 163 165 171 173 170 170 167 152 159 160 157 155 138 136 131 132 137 114 97 99 98 86 103 121 133 132 124 111 92 71 51 36
177 175 174 173 173 172 170 169 167 164 164 166 167 170 177 175 171 164 155 162 158 150 149 152 149 146 145 130 119 117 114 126 130 136 130 128 128 130 133 129 112 73 34
178 175 175 173 173 170 170 170 170 168 170 170 170 172 174 176 172 166 160 164 157 150 157 156 153 146 136 136 124 119 144 159 171 166 153 144 148 154 156 161 163 162 122
177 175 175 175 176 174 178 178 179 181 177 176 173 174 175 176 174 168 163 165 159 163 167 165 154 146 145 132 109 94 293 231 197 183 172 164 166 170 177 186 184 184 187
179 177 176 178 179 180 184 182 179 175 176 176 172 176 179 179 177 176 168 170 165 166 171 173 156 150 161 155 152 145 194 294 275 216 194 186 183 180 190 199 202 206 201
181 180 181 180 181 183 179 173 168 166 170 179 185 186 184 182 180 179 175 170 172 171 177 178 167 160 167 185 185 161 168 211 228 246 223 204 200 202 203 202 206 212 217
182 180 180 180 182 183 179 180 178 182 187 190 186 186 184 184 182 181 180 177 176 176 177 180 174 169 162 177 203 209 185 162 153 220 268 234 216 215 214 204 202 209 215
180 179 181 180 182 181 183 185 185 189 191 180 177 181 187 189 186 184 183 183 182 182 181 180 175 176 173 170 172 174 198 209 182 165 226 250 248 235 219 209 200 204 209
178 178 179 181 183 182 185 187 189 191 187 182 184 187 189 190 191 189 186 188 187 184 184 181 178 179 181 175 173 167 164 173 197 188 208 225 236 244 229 212 200 203 209
Height
1485 1489 1493 1497 1500 1504 1507 1510 1512 1515 1517 1519 1520 1522 1523 1524 1526 1527 1528 1529 1530 1531 1531 1532 1532 1533 1533 1534 1534 1535 1536 1536 1536 1537 1536 1536 1536 1536 1535 1535 1535 1535 1534
1482 1487 1492 1496 1500 1503 1507 1509 1512 1515 1517 1519 1521 1522 1523 1525 1526 1528 1529 1530 1531 1532 1532 1533 1533 1534 1534 1535 1535 1536 1537 1537 1538 1538 1538 1538 1537 1537 1537 1536 1536 1536 1535
1482 1486 1491 1495 1499 1503 1506 1509 1512 1514 1517 1519 1521 1522 1524 1525 1527 1528 1529 1530 1532 1532 1533 1534 1534 1535 1535 1536 1537 1537 1538 1539 1540 1540 1539 1539 1539 1539 1538 1538 1537 1537 1536
1482 1486 1490 1495 1499 1502 1506 1509 1512 1514 1517 1519 1521 1523 1524 1526 1528 1529 1530 1531 1532 1533 1534 1535 1535 1536 1537 1537 1538 1539 1540 1540 1541 1541 1540 1540 1540 1540 1540 1539 1539 1538 1538
1482 1486 1490 1494 1498 1502 1505 1509 1512 1514 1517 1519 1521 1523 1525 1527 1528 1530 1531 1532 1533 1534 1535 1536 1537 1537 1538 1538 1539 1540 1541 1542 1542 1542 1541 1541 1541 1541 1541 1540 1540 1539 1539
1482 1486 1490 1494 1498 1502 1505 1508 1511 1514 1516 1519 1521 1523 1525 1527 1529 1530 1531 1533 1534 1535 1536 1537 1538 1538 1539 1540 1540 1541 1542 1542 1543 1543 1542 1542 1542 1542 1542 1541 1541 1540 1540
1482 1486 1490 1494 1498 1502 1505 1508 1511 1514 1516 1519 1521 1523 1525 1527 1529 1530 1532 1533 1535 1536 1537 1538 1539 1539 1540 1541 1541 1542 1543 1543 1544 1543 1543 1543 1543 1543 1542 1542 1542 1541 1540
1482 1485 1490 1494 1498 1501 1505 1508 1511 1514 1516 1519 1521 1523 1525 1527 1529 1531 1532 1534 1535 1537 1538 1539 1539 1540 1541 1541 1542 1543 1544 1544 1545 1544 1544 1544 1544 1544 1543 1543 1542 1542 1541
1482 1485 1489 1493 1497 1501 1505 1508 1511 1514 1516 1519 1521 1523 1525 1527 1529 1531 1532 1534 1536 1537 1538 1539 1540 1541 1542 1542 1543 1544 1545 1545 1546 1545 1545 1545 1545 1545 1544 1543 1543 1542 1542
1482 1485 1488 1492 1496 1500 1504 1507 1511 1513 1516 1519 1521 1523 1525 1527 1529 1531 1533 1534 1536 1537 1539 1540 1541 1542 1543 1543 1544 1545 1546 1546 1546 1545 1545 1545 1546 1545 1545 1544 1544 1543 1542
1482 1484 1488 1491 1495 1499 1503 1506 1510 1513 1516 1518 1521 1523 1525 1527 1529 1531 1533 1535 1536 1538 1539 1540 1541 1543 1544 1544 1545 1546 1546 1546 1546 1546 1546 1546 1546 1546 1545 1545 1544 1543 1542
1479 1483 1486 1490 1494 1498 1501 1505 1508 1512 1515 1517 1520 1522 1525 1527 1529 1531 1533 1535 1537 1538 1540 1541 1542 1543 1544 1545 1546 1546 1547 1547 1547 1546 1546 1546 1547 1546 1546 1545 1544 1544 1543
1476 1481 1485 1489 1492 1496 1499 1503 1507 1510 1513 1516 1519 1522 1524 1527 1529 1531 1533 1535 1537 1538 1540 1541 1543 1544 1545 1546 1546 1547 1547 1548 1547 1546 1547 1547 1547 1546 1546 1545 1545 1544 1543
1475 1479 1483 1487 1490 1494 1498 1501 1505 1508 1511 1515 1518 1521 1524 1526 1528 1530 1532 1534 1536 1538 1540 1542 1543 1544 1545 1546 1547 1547 1548 1548 1547 1547 1547 1547 1546 1546 1546 1545 1545 1544 1543
1472 1476 1481 1484 1488 1492 1496 1500 1503 1506 1510 1513 1517 1520 1522 1525 1527 1529 1532 1534 1536 1538 1540 1542 1543 1545 1545 1546 1547 1547 1547 1547 1547 1547 1547 1547 1546 1546 1546 1545 1545 1544 1543
1469 1473 1477 1481 1486 1490 1494 1497 1501 1505 1508 1512 1515 1518 1521 1523 1526 1529 1531 1533 1536 1538 1539 1541 1543 1544 1545 1546 1546 1547 1547 1547 1547 1547 1547 1546 1546 1546 1545 1545 1544 1544 1543
1464 1469 1474 1478 1483 1487 1491 1495 1499 1503 1506 1510 1513 1516 1519 1522 1524 1527 1530 1532 1535 1537 1539 1541 1542 1543 1544 1545 1546 1546 1547 1547 1547 1547 1546 1546 1546 1545 1545 1544 1544 1543 1542
1461 1465 1470 1474 1479 1483 1488 1493 1497 1501 1504 1507 1510 1514 1517 1520 1523 1525 1528 1530 1533 1535 1537 1539 1541 1542 1543 1544 1545 1545 1546 1546 1546 1546 1546 1545 1545 1544 1544 1544 1543 1542 1542
1456 1460 1465 1470 1474 1479 1484 1490 1494 1498 1501 1505 1508 1511 1514 1517 1520 1523 1526 1528 1531 1534 1536 1538 1539 1541 1542 1543 1544 1544 1545 1545 1545 1545 1545 1545 1544 1544 1543 1543 1542 1542 1541
1451 1456 1460 1465 1470 1475 1481 1486 1491 1495 1498 1502 1504 1508 1511 1514 1517 1520 1523 1526 1529 1531 1533 1535 1537 1539 1540 1541 1542 1543 1543 1544 1544 1544 1544 1543 1543 1543 1542 1542 1541 1540 1539
1446 1450 1455 1459 1465 1470 1475 1479 1484 1488 1493 1497 1501 1504 1508 1511 1514 1517 1520 1523 1525 1528 1530 1533 1535 1537 1538 1539 1541 1541 1542 1542 1542 1542 1542 1542 1541 1541 1541 1540 1539 1538 1537
1438 1443 1448 1453 1458 1463 1467 1472 1477 1483 1488 1493 1497 1500 1504 1507 1510 1513 1516 1519 1522 1525 1527 1530 1532 1534 1535 1537 1538 1539 1540 1541 1540 1540 1540 1540 1540 1539 1539 1538 1537 1536 1535
1431 1436 1441 1446 1451 1456 1462 1468 1474 1480 1485 1489 1492 1495 1499 1502 1506 1509 1512 1515 1518 1521 1523 1526 1528 1530 1532 1534 1536 1537 1537 1537 1537 1538 1537 1538 1537 1537 1536 1536 1535 1534 1533
1423 1429 1435 1440 1445 1450 1456 1461 1465 1469 1473 1477 1483 1488 1493 1497 1501 1505 1508 1511 1514 1517 1519 1522 1524 1526 1529 1530 1532 1534 1535 1535 1535 1535 1535 1535 1535 1534 1534 1533 1532 1531 1530
1416 1422 1428 1434 1439 1444 1449 1454 1459 1463 1468 1473 1479 1483 1488 1492 1496 1499 1503 1506 1509 1512 1515 1518 1520 1523 1524 1526 1528 1530 1531 1532 1532 1532 1532 1532 1532 1532 1531 1530 1529 1528 1527
1409 1415 1421 1427 1432 1437 1442 1447 1452 1456 1462 1467 1472 1476 1481 1485 1490 1494 1497 1501 1504 1507 1510 1513 1516 1518 1521 1522 1524 1526 1527 1528 1528 1529 1529 1528 1528 1528 1528 1527 1526 1525 1524